Temperature
28 27 26 26 27 29 29 29 29 28 28 29 29 29 29 29 28 27 26 25 24 23 22 21 20 20 19 18 18 17 17 16 15 15 14 14 13 13 12 12 12 11 11 11
28 29 29 28 29 29 30 30 30 29 29 30 30 29 29 28 28 27 26 25 24 23 22 21 20 19 19 18 17 17 16 16 15 15 14 14 13 13 13 12 12 12 11 11
27 29 28 28 29 29 29 30 29 29 29 30 29 29 28 28 27 27 26 25 24 23 22 21 20 19 19 18 17 17 16 16 15 15 14 14 14 13 13 12 12 12 11 11
27 27 26 27 28 29 28 29 30 29 29 29 29 28 28 27 27 27 26 25 25 24 22 21 20 19 19 18 17 17 16 16 15 15 15 14 14 13 13 12 12 12 11 11
27 26 27 28 27 27 26 26 28 28 28 28 28 28 28 27 27 26 26 25 25 24 23 22 21 20 19 18 18 17 16 16 16 15 15 14 14 13 13 13 12 12 12 11
26 26 26 26 26 25 25 24 26 26 26 26 26 26 26 26 26 26 25 25 24 24 23 22 21 20 19 18 18 17 17 16 16 16 15 15 14 14 13 13 13 12 12 11
25 26 26 26 26 25 23 22 24 24 24 25 25 25 25 26 26 25 25 24 24 23 23 22 21 20 19 19 18 18 17 17 16 16 15 15 15 14 13 13 12 12 12 12
24 24 23 23 24 23 21 22 22 24 24 24 25 25 25 25 25 24 24 24 23 23 22 22 21 20 19 19 18 17 17 16 16 16 15 15 14 14 13 13 12 12 12 12
25 23 21 20 20 20 21 22 23 24 24 24 24 24 24 24 24 23 23 23 22 22 22 21 20 20 19 18 18 17 16 16 16 16 15 15 15 14 13 13 12 12 12 12
24 22 20 20 21 21 22 22 23 23 23 23 23 23 23 22 22 22 21 21 21 21 21 20 20 19 18 18 17 17 16 16 16 16 15 15 14 14 13 13 13 13 13 12
23 22 21 20 21 22 22 22 22 22 22 21 21 21 20 20 19 19 19 20 20 20 20 19 19 18 17 17 16 16 16 16 15 15 14 14 14 14 14 13 13 13 13 12
23 22 22 21 21 22 21 21 21 20 20 19 19 19 19 18 18 18 18 18 18 18 18 18 18 17 17 16 16 16 15 15 15 14 14 14 14 14 14 14 14 13 13 12
23 23 22 21 21 21 21 21 20 19 19 18 18 18 17 17 17 17 17 16 16 16 16 16 16 16 16 16 15 15 15 14 14 14 14 14 14 14 14 14 14 13 13 13
21 21 21 21 21 21 20 20 19 19 18 17 17 17 16 16 16 16 15 15 15 15 15 15 15 15 15 14 14 14 14 13 13 13 13 13 14 14 14 14 13 13 13 13
21 21 20 20 19 19 19 19 18 18 17 17 16 16 16 15 15 15 15 14 14 14 14 14 13 13 13 13 13 13 13 13 13 13 13 13 13 13 14 13 13 13 13 13
20 20 19 18 18 18 17 17 17 16 16 16 15 15 15 15 14 14 14 13 13 13 13 13 12 12 12 12 12 12 12 12 13 13 13 13 13 13 13 13 13 13 13 12
19 18 18 17 17 16 16 16 16 15 15 15 15 14 14 14 13 13 13 12 12 12 12 12 11 11 11 11 11 11 11 12 12 12 12 13 13 13 13 13 13 12 12 12
17 16 15 15 15 15 15 15 15 15 14 14 14 14 13 13 12 12 12 12 12 11 11 11 11 11 10 10 10 10 10 11 11 11 12 12 12 12 12 12 12 12 11 11
15 15 15 15 15 14 15 14 14 14 14 13 13 13 13 12 12 11 11 11 11 11 11 10 10 10 10 10 10 9 10 10 10 11 11 11 11 12 12 11 11 11 11 11
15 15 15 14 14 14 14 14 14 14 13 13 13 12 12 12 11 11 11 11 11 11 10 10 10 10 9 9 9 9 9 9 10 10 10 10 11 11 11 11 10 10 10 10
15 15 15 15 14 14 14 13 13 13 13 12 12 12 12 11 11 11 11 11 11 11 10 10 10 9 9 9 8 8 8 9 9 9 9 9 10 10 10 10 10 9 9 10
14 14 14 14 13 13 13 13 12 12 12 12 12 12 11 11 11 11 11 11 11 10 10 10 9 9 8 8 8 8 8 8 8 8 8 8 8 8 9 9 9 9 9 9
13 13 13 13 12 12 12 12 12 12 12 12 11 11 11 11 11 11 11 11 10 10 9 9 9 8 8 7 7 7 7 7 6 6 6 6 7 7 7 7 8 8 8 8
12 12 12 12 12 12 12 12 12 12 12 12 12 12 12 12 12 11 11 10 10 9 9 8 8 7 7 6 6 6 6 5 5 5 5 5 5 6 6 6 6 6 7 7
12 12 12 12 12 12 12 12 12 12 12 12 12 12 12 11 11 11 10 10 9 8 8 7 7 6 6 5 5 5 4 4 4 4 4 4 4 5 5 5 5 5 6 6
12 12 12 12 12 11 12 12 12 12 12 12 11 11 11 10 10 10 9 9 8 7 7 6 5 5 5 4 4 4 3 3 3 3 3 3 3 4 4 4 4 5 5 5
12 12 12 12 12 12 12 12 11 11 11 11 10 10 10 10 9 9 8 7 7 6 6 5 4 4 3 3 3 3 2 2 2 2 2 2 3 3 3 3 4 4 4 5
Wind_Speed
12 8 11 14 16 13 11 10 10 8 6 3 3 3 3 5 6 7 9 9 9 9 9 8 7 7 7 6 6 5 4 5 5 5 5 4 5 5 5 6 8 7 6 7
15 14 13 13 13 13 12 10 10 9 5 4 5 3 2 3 4 6 7 9 10 10 11 10 9 8 8 7 7 7 6 5 5 4 4 5 5 6 6 6 6 6 7 7
15 16 14 13 12 11 9 8 8 5 1 2 2 2 1 2 4 6 7 9 10 11 11 11 10 9 9 8 7 7 7 6 6 6 6 5 6 5 5 5 6 7 7 7
14 16 17 8 7 7 8 6 5 3 1 1 1 2 3 4 4 4 6 7 9 10 11 12 12 12 9 10 9 8 8 8 7 6 6 5 5 5 5 5 6 6 7 8
13 15 14 8 4 4 6 7 8 4 4 4 4 3 2 4 3 3 4 5 6 9 12 12 13 12 11 10 10 10 9 9 8 7 6 5 5 5 5 5 6 7 8 8
13 15 15 4 3 2 3 3 10 10 10 10 6 5 3 3 2 2 2 4 6 8 8 11 11 12 12 11 10 10 10 8 7 6 5 5 6 5 6 6 7 8 8 8
15 14 6 4 2 3 3 1 7 7 6 6 6 6 5 3 1 2 2 2 5 6 7 9 10 10 10 10 10 9 8 7 6 6 6 7 7 6 6 7 8 8 9 9
9 9 3 9 4 3 3 4 6 6 6 7 5 6 6 6 3 1 0 1 3 4 5 7 9 9 9 8 7 6 6 6 6 6 7 7 6 6 6 8 9 9 10 11
3 2 3 4 4 2 3 4 6 7 8 7 7 8 7 7 6 4 2 1 2 3 4 5 7 7 8 7 6 6 6 6 6 6 7 6 7 8 8 8 10 9 8 7
3 5 6 6 6 4 3 5 7 9 10 11 11 11 12 11 10 9 7 5 4 1 1 3 5 7 7 6 7 7 7 7 7 7 8 9 9 9 9 9 8 7 6 6
0 6 8 7 5 5 6 9 11 12 13 14 13 13 13 12 13 11 11 10 8 6 3 1 2 3 5 6 6 7 8 7 8 9 10 9 9 10 10 9 8 7 6 6
1 4 4 6 5 6 8 10 11 12 13 14 14 14 14 13 12 12 12 10 10 9 8 6 3 1 3 4 5 6 7 8 9 9 9 9 9 10 16 17 16 16 15 12
4 5 8 7 7 6 8 10 11 11 12 12 13 13 13 12 11 12 12 12 11 10 8 7 5 4 3 3 4 6 8 8 9 10 10 8 8 8 8 10 15 17 17 18
7 6 7 8 8 8 9 9 10 11 12 12 11 11 11 11 11 11 12 12 11 11 10 9 8 7 7 7 6 7 9 11 11 10 11 10 9 8 7 8 6 7 12 19
6 7 9 9 8 9 9 9 9 9 10 10 10 11 11 10 10 10 10 11 11 10 10 11 10 9 9 10 9 10 11 10 10 11 11 10 9 9 8 8 8 7 6 7
8 10 10 10 9 9 9 9 9 9 9 10 10 10 10 10 10 10 10 11 11 11 10 10 9 11 11 11 11 10 10 14 13 11 12 11 9 9 8 8 8 7 6 6
8 8 8 7 7 7 7 7 8 9 9 10 10 10 10 10 10 10 10 11 11 10 9 8 9 11 11 11 12 12 12 13 15 13 11 11 10 10 8 7 7 6 6 3
12 11 9 7 6 5 6 7 7 8 8 9 11 11 10 10 10 10 11 11 11 10 9 8 9 11 11 11 10 12 12 13 13 13 11 9 9 9 9 8 7 8 6 4
9 7 5 4 3 4 6 7 8 9 9 10 10 10 10 10 10 10 11 11 11 10 8 10 12 12 12 10 12 10 13 15 14 13 12 11 11 9 8 8 8 7 6 5
4 3 2 3 4 6 7 8 9 10 10 11 11 10 10 11 11 11 11 10 9 7 8 9 11 11 10 10 12 14 15 16 15 14 13 12 10 8 8 8 7 6 6 4
1 3 5 7 8 9 10 10 11 11 11 11 11 11 11 11 12 11 10 11 6 5 8 10 8 8 10 12 15 15 15 15 14 13 12 11 10 8 8 7 6 6 5 3
4 6 8 9 10 11 11 11 12 12 12 11 11 12 12 12 12 11 9 7 7 4 7 10 10 9 11 14 14 14 14 13 12 11 11 10 9 8 8 7 5 5 4 3
6 8 9 10 11 11 12 12 12 11 11 12 12 13 13 11 11 11 10 6 7 7 8 9 8 9 12 12 12 12 12 11 11 11 10 10 9 8 7 7 6 5 4 3
8 9 10 11 11 12 12 12 11 10 12 12 13 11 10 10 9 8 8 8 7 8 9 6 6 9 11 9 10 9 10 10 10 10 10 9 9 8 8 7 7 5 5 4
10 11 12 12 12 11 11 11 12 11 11 10 11 11 10 9 10 10 10 10 9 9 9 7 8 10 9 9 8 9 9 8 9 9 9 8 8 8 8 7 6 5 5 5
10 10 10 10 10 9 11 10 10 10 10 11 11 11 10 10 11 10 8 10 11 9 8 8 9 9 9 9 8 9 8 8 8 8 8 8 8 8 7 8 8 6 6 6
11 10 8 9 8 8 9 10 10 11 11 11 11 11 11 10 10 10 10 9 9 8 8 8 9 9 8 8 8 8 8 8 7 7 8 7 7 7 7 8 7 7 7 7
Wind_Direction
289 256 214 234 255 265 266 272 280 282 281 256 182 168 159 166 166 170 165 167 167 157 155 161 164 165 176 187 183 189 190 208 214 216 224 236 248 255 263 270 278 282 285 284
290 277 264 258 261 262 266 270 272 279 291 64 86 97 123 152 172 176 175 179 177 172 168 173 177 181 184 188 186 178 195 220 224 221 235 242 247 248 252 260 272 275 276 281
286 291 290 279 284 283 286 283 278 276 281 85 129 125 158 204 205 186 189 189 182 179 177 176 181 184 188 187 185 185 194 213 221 220 232 239 255 265 272 275 276 275 274 276
278 283 279 280 307 293 272 268 277 275 239 152 90 161 204 223 226 191 192 194 183 181 176 177 181 184 187 187 187 194 200 210 217 221 233 238 246 258 265 269 273 275 274 274
272 276 275 278 303 316 337 336 348 11 15 24 33 327 251 179 178 175 200 185 175 184 186 179 182 181 182 193 190 199 207 208 214 219 228 237 249 257 264 267 270 271 273 268
261 270 282 313 71 52 340 313 10 35 29 9 4 334 7 97 157 197 201 178 177 188 185 172 176 175 180 194 197 204 210 206 207 209 220 234 245 253 260 263 268 271 270 269
259 267 280 24 112 171 207 35 358 22 18 350 10 339 319 306 174 166 174 187 180 185 183 172 168 172 184 197 204 204 204 201 203 207 214 226 235 238 246 258 265 269 275 272
261 272 292 7 10 46 23 353 337 352 357 352 346 312 319 336 358 44 288 219 199 184 181 163 164 175 192 205 206 201 201 204 209 214 232 241 230 236 245 255 263 264 261 261
234 217 123 73 64 31 3 346 354 354 355 349 338 338 355 5 11 20 21 322 241 193 181 165 165 176 200 206 202 206 207 214 220 224 226 235 242 246 249 248 254 260 263 266
17 92 122 132 129 109 53 17 12 18 17 18 13 11 19 25 22 19 13 6 359 349 189 171 175 191 203 199 196 206 214 220 224 230 235 232 234 241 248 252 255 259 271 282
254 126 118 78 65 62 57 45 40 38 38 36 32 32 32 33 26 21 20 15 12 6 356 352 188 203 210 203 200 214 224 230 235 241 247 243 235 236 242 246 248 251 263 274
105 125 116 113 87 65 70 66 57 48 46 41 37 36 36 33 28 24 20 18 14 6 360 354 343 275 246 224 219 229 239 242 247 250 251 249 244 244 234 232 235 225 226 237
74 81 98 105 90 76 77 73 70 61 52 45 38 33 33 30 25 22 18 15 9 1 355 353 347 330 302 272 247 245 254 261 265 266 266 261 258 254 256 244 234 231 230 233
89 90 99 87 77 63 61 64 64 59 49 43 35 28 25 22 19 17 12 7 3 356 355 355 350 348 343 330 308 285 275 272 267 265 266 265 264 262 258 263 260 246 233 231
103 112 108 92 78 66 53 51 51 45 35 29 25 18 14 11 9 8 5 2 359 356 360 355 351 352 349 341 330 312 298 287 279 273 270 267 264 264 263 263 263 263 260 233
108 101 98 90 71 56 46 39 31 24 18 13 10 3 359 357 358 358 359 359 355 354 353 349 352 355 351 343 331 317 303 293 289 285 279 273 268 265 262 259 260 259 260 267
120 109 95 82 66 48 34 24 13 6 1 357 352 348 349 350 348 352 351 348 344 340 340 346 2 353 342 334 324 317 312 308 303 294 283 279 275 272 273 269 265 264 269 270
81 79 73 61 41 22 6 360 355 350 347 343 341 343 344 343 342 342 339 337 331 325 331 355 3 344 331 329 330 321 314 308 306 302 298 289 283 277 274 275 278 278 278 254
94 89 78 51 9 345 341 339 339 341 339 335 333 332 333 333 334 334 331 326 319 316 339 350 344 329 320 342 347 325 316 311 309 305 300 289 280 274 269 270 269 266 268 264
92 74 21 335 330 333 330 331 332 331 329 326 323 323 323 323 324 320 317 309 311 326 332 332 324 316 323 350 343 322 313 307 305 303 300 298 296 292 289 285 282 277 266 258
33 343 332 334 337 333 331 333 328 320 316 316 317 316 315 316 313 308 303 306 319 336 321 312 312 330 341 338 322 317 314 314 315 312 309 307 306 309 307 301 297 293 282 277
346 336 331 330 328 325 324 320 313 309 311 313 314 313 310 305 301 299 297 302 316 342 322 322 331 349 340 325 319 316 317 321 325 326 326 326 325 326 324 317 314 311 311 315
327 324 321 319 316 314 313 309 306 307 311 311 305 299 296 296 298 301 306 321 332 345 330 331 344 341 325 319 319 320 325 330 330 327 327 327 330 335 334 331 332 330 333 341
316 312 312 311 309 306 302 303 306 304 297 292 290 293 299 302 305 313 326 339 352 348 334 343 340 328 315 320 326 330 334 335 332 330 330 334 337 339 339 337 339 341 345 351
301 302 300 299 299 301 308 307 302 298 300 309 314 319 319 322 324 327 331 333 347 345 338 346 346 334 331 338 341 342 342 342 337 332 332 334 337 341 341 340 346 352 358 358
290 289 292 294 294 292 294 299 308 318 322 321 323 325 327 328 328 331 334 340 347 351 349 350 354 353 353 354 353 352 348 342 340 338 337 338 341 347 348 349 353 0 1 1
291 290 286 287 298 307 316 320 321 322 323 324 326 327 326 329 334 338 342 345 348 356 3 3 3 2 2 1 357 356 353 348 347 346 345 349 353 353 352 352 357 360 3 6
Height
1475 1476 1482 1484 1476 1468 1468 1468 1474 1473 1472 1469 1467 1468 1471 1474 1478 1483 1487 1491 1495 1499 1502 1505 1508 1510 1512 1513 1514 1515 1515 1515 1515 1515 1514 1513 1512 1511 1510 1508 1507 1505 1503 1502
1476 1469 1467 1469 1464 1463 1461 1460 1462 1463 1465 1461 1464 1467 1471 1474 1477 1481 1485 1488 1492 1496 1499 1502 1504 1506 1508 1509 1510 1510 1511 1511 1511 1511 1510 1510 1509 1507 1506 1504 1503 1501 1499 1497
1480 1467 1466 1473 1461 1459 1458 1456 1459 1464 1463 1461 1464 1468 1471 1473 1476 1478 1482 1485 1488 1492 1495 1497 1500 1502 1504 1505 1506 1506 1507 1507 1507 1507 1507 1506 1505 1504 1502 1500 1499 1497 1495 1493
1478 1476 1487 1468 1456 1456 1458 1456 1454 1456 1458 1460 1463 1467 1470 1472 1474 1476 1479 1482 1485 1487 1490 1493 1495 1497 1499 1500 1501 1502 1502 1503 1503 1503 1503 1502 1501 1500 1498 1496 1494 1492 1490 1488
1477 1478 1472 1460 1459 1461 1465 1465 1458 1458 1460 1460 1463 1465 1467 1469 1472 1475 1478 1479 1481 1484 1486 1488 1490 1492 1494 1496 1497 1497 1498 1498 1499 1499 1498 1497 1496 1495 1493 1492 1490 1487 1486 1484
1475 1479 1479 1466 1461 1460 1466 1474 1466 1464 1465 1465 1466 1470 1470 1470 1471 1473 1475 1477 1478 1480 1482 1483 1485 1487 1489 1490 1492 1492 1493 1494 1494 1494 1493 1492 1491 1490 1489 1487 1485 1483 1481 1479
1473 1472 1465 1463 1462 1464 1479 1482 1470 1468 1469 1469 1469 1472 1472 1470 1470 1471 1473 1474 1475 1477 1478 1479 1480 1482 1484 1485 1486 1488 1489 1489 1489 1489 1488 1487 1486 1485 1483 1482 1480 1478 1476 1474
1471 1478 1480 1468 1466 1474 1479 1474 1472 1470 1470 1469 1469 1469 1469 1469 1469 1469 1470 1471 1472 1473 1475 1476 1477 1478 1479 1481 1483 1484 1485 1485 1484 1484 1483 1483 1482 1480 1478 1477 1475 1472 1471 1469
1463 1470 1471 1471 1474 1476 1476 1474 1472 1471 1470 1469 1469 1469 1468 1468 1468 1468 1469 1470 1470 1471 1472 1473 1474 1475 1477 1478 1479 1480 1480 1480 1479 1479 1478 1477 1476 1475 1473 1472 1470 1468 1467 1465
1461 1465 1470 1473 1473 1474 1474 1473 1473 1472 1470 1470 1470 1470 1469 1469 1469 1469 1468 1468 1468 1468 1469 1470 1471 1472 1473 1474 1474 1474 1474 1473 1473 1472 1471 1470 1469 1468 1467 1466 1465 1464 1462 1460
1463 1468 1471 1475 1474 1474 1473 1473 1473 1473 1473 1473 1473 1472 1472 1471 1471 1470 1469 1468 1468 1468 1468 1468 1468 1468 1469 1470 1469 1469 1468 1468 1467 1466 1465 1464 1463 1462 1460 1459 1458 1457 1456 1454
1463 1466 1469 1473 1474 1474 1474 1474 1475 1476 1476 1476 1476 1475 1475 1474 1473 1471 1470 1469 1468 1468 1467 1467 1467 1466 1466 1466 1465 1464 1463 1462 1461 1461 1459 1458 1456 1455 1453 1452 1451 1450 1449 1448
1462 1464 1467 1471 1472 1474 1475 1476 1477 1478 1479 1479 1479 1478 1477 1476 1475 1474 1472 1471 1470 1469 1468 1467 1466 1465 1464 1463 1461 1460 1458 1457 1456 1455 1453 1452 1450 1448 1447 1446 1444 1443 1441 1440
1465 1467 1469 1472 1474 1475 1476 1477 1479 1480 1481 1481 1481 1480 1479 1478 1477 1475 1474 1473 1471 1469 1468 1466 1464 1463 1461 1459 1457 1455 1454 1452 1450 1448 1446 1445 1443 1442 1440 1439 1438 1435 1434 1433
1466 1469 1472 1474 1476 1478 1479 1480 1481 1482 1483 1483 1482 1481 1480 1479 1477 1476 1474 1472 1471 1469 1467 1465 1463 1461 1458 1455 1453 1451 1449 1447 1444 1442 1440 1438 1436 1435 1433 1432 1430 1429 1428 1426
1469 1471 1474 1477 1480 1481 1482 1483 1483 1484 1483 1483 1482 1481 1480 1479 1477 1475 1473 1471 1470 1467 1465 1463 1460 1458 1455 1452 1449 1447 1444 1442 1439 1436 1434 1432 1430 1428 1426 1425 1423 1422 1421 1420
1471 1474 1478 1480 1483 1484 1485 1485 1485 1484 1484 1483 1482 1481 1479 1477 1476 1474 1472 1470 1468 1466 1463 1460 1457 1454 1452 1449 1446 1443 1440 1437 1433 1430 1427 1425 1423 1421 1419 1418 1417 1415 1414 1413
1476 1479 1482 1484 1485 1485 1485 1485 1485 1484 1483 1482 1481 1479 1477 1476 1474 1472 1470 1468 1466 1463 1461 1458 1454 1451 1449 1446 1443 1439 1436 1432 1429 1425 1422 1419 1416 1414 1412 1411 1410 1409 1408 1407
1480 1483 1484 1485 1486 1486 1485 1485 1484 1483 1482 1481 1479 1477 1476 1474 1472 1470 1468 1465 1463 1460 1457 1454 1451 1449 1446 1442 1438 1435 1432 1428 1424 1420 1416 1413 1410 1407 1406 1404 1403 1402 1401 1401
1483 1484 1485 1485 1485 1485 1484 1483 1482 1481 1480 1478 1477 1475 1473 1471 1470 1467 1465 1462 1459 1456 1454 1451 1448 1445 1442 1438 1434 1431 1427 1423 1418 1414 1411 1407 1404 1401 1399 1398 1396 1396 1395 1395
1483 1484 1484 1484 1484 1483 1483 1481 1480 1479 1477 1475 1474 1472 1470 1468 1466 1463 1460 1458 1455 1452 1450 1447 1444 1441 1437 1433 1430 1426 1422 1418 1413 1409 1405 1402 1399 1396 1393 1392 1390 1390 1390 1390
1483 1484 1484 1483 1482 1481 1480 1479 1477 1475 1473 1472 1470 1468 1466 1464 1461 1459 1456 1454 1451 1448 1445 1443 1440 1436 1432 1429 1425 1421 1417 1413 1409 1405 1401 1397 1394 1391 1389 1388 1386 1386 1385 1385
1483 1483 1482 1481 1480 1479 1477 1475 1473 1471 1470 1468 1466 1464 1461 1459 1457 1454 1452 1449 1446 1443 1441 1438 1434 1431 1427 1423 1420 1416 1412 1408 1405 1401 1397 1394 1390 1388 1386 1384 1383 1382 1381 1381
1482 1481 1480 1478 1477 1475 1473 1471 1469 1467 1465 1463 1461 1459 1457 1454 1452 1450 1447 1445 1442 1439 1436 1433 1429 1425 1421 1418 1414 1411 1407 1404 1400 1397 1394 1390 1387 1385 1383 1381 1380 1379 1378 1378
1479 1478 1476 1475 1473 1470 1468 1467 1465 1463 1461 1459 1457 1455 1453 1451 1449 1446 1443 1441 1437 1434 1431 1428 1424 1420 1417 1413 1410 1406 1403 1400 1396 1393 1390 1387 1384 1382 1380 1378 1377 1377 1376 1376
1475 1474 1472 1471 1469 1467 1465 1463 1461 1459 1458 1456 1454 1452 1450 1447 1445 1442 1439 1436 1433 1430 1427 1424 1420 1416 1413 1409 1406 1402 1399 1396 1393 1390 1387 1385 1382 1380 1379 1377 1376 1375 1375 1374
1471 1469 1467 1466 1464 1463 1462 1460 1459 1457 1455 1453 1451 1449 1447 1444 1441 1439 1436 1433 1430 1427 1424 1420 1417 1413 1410 1406 1403 1399 1396 1393 1390 1387 1385 1383 1381 1379 1378 1377 1376 1375 1374 1373